Hourly Weather Huelva

Today, 8 August, Saturday

Time Temperature Precipitation Wind Pressure Humidity
00:00 +23°C° 0 mm 1 mps 762 mmHg 88%
01:00 +23°C° 0 mm 1 mps 762 mmHg 87%
02:00 +23°C° 0 mm 1 mps 761 mmHg 87%
03:00 +23°C° 0 mm 1 mps 761 mmHg 86%
04:00 +23°C° 0 mm 1 mps 761 mmHg 85%
05:00 +23°C° 0 mm 1 mps 762 mmHg 83%
06:00 +23°C° 0 mm 1 mps 762 mmHg 84%
07:00 +26°C° 0 mm 1 mps 762 mmHg 72%
08:00 +29°C° 0 mm 2 mps 762 mmHg 59%
09:00 +31°C° 0 mm 2 mps 761 mmHg 46%
10:00 +34°C° 0 mm 2 mps 761 mmHg 40%
11:00 +36°C° 0 mm 3 mps 761 mmHg 35%
12:00 +38°C° 0 mm 3 mps 761 mmHg 30%
13:00 +40°C° 0 mm 4 mps 760 mmHg 30%
14:00 +40°C° 0 mm 4 mps 760 mmHg 30%
15:00 +40°C° 0 mm 5 mps 759 mmHg 30%
16:00 +39°C° 0 mm 5 mps 759 mmHg 30%
17:00 +38°C° 0 mm 4 mps 759 mmHg 31%
18:00 +37°C° 0 mm 4 mps 758 mmHg 32%
19:00 +34°C° 0 mm 4 mps 759 mmHg 39%
20:00 +31°C° 0 mm 3 mps 759 mmHg 46%
21:00 +28°C° 0 mm 3 mps 760 mmHg 53%
22:00 +27°C° 0 mm 3 mps 760 mmHg 52%
23:00 +26°C° 0 mm 3 mps 760 mmHg 52%

Tomorrow, 9 August, Sunday

Time Temperature Precipitation Wind Pressure Humidity
00:00 +26°C° 0 mm 3 mps 760 mmHg 52%
01:00 +25°C° 0 mm 3 mps 760 mmHg 54%
02:00 +24°C° 0 mm 2 mps 760 mmHg 56%
03:00 +24°C° 0 mm 2 mps 759 mmHg 58%
04:00 +23°C° 0 mm 2 mps 759 mmHg 62%
05:00 +23°C° 0 mm 2 mps 759 mmHg 65%
06:00 +21°C° 0 mm 2 mps 759 mmHg 68%
07:00 +25°C° 0 mm 2 mps 759 mmHg 59%
08:00 +28°C° 0 mm 2 mps 759 mmHg 50%
09:00 +31°C° 0 mm 2 mps 759 mmHg 41%
10:00 +34°C° 0 mm 2 mps 759 mmHg 36%
11:00 +36°C° 0 mm 2 mps 759 mmHg 31%
12:00 +38°C° 0 mm 3 mps 759 mmHg 26%
13:00 +40°C° 0 mm 4 mps 758 mmHg 24%
14:00 +41°C° 0 mm 4 mps 758 mmHg 22%
15:00 +41°C° 0 mm 5 mps 757 mmHg 20%
16:00 +40°C° 0 mm 5 mps 757 mmHg 23%
17:00 +37°C° 0 mm 5 mps 757 mmHg 26%
18:00 +36°C° 0 mm 5 mps 757 mmHg 30%
19:00 +34°C° 0 mm 6 mps 757 mmHg 33%
20:00 +32°C° 0 mm 6 mps 758 mmHg 36%
21:00 +29°C° 0 mm 6 mps 758 mmHg 40%
22:00 +27°C° 0 mm 6 mps 758 mmHg 43%
23:00 +26°C° 0 mm 6 mps 758 mmHg 47%

Day after tomorrow, 10 August, Monday

Time Temperature Precipitation Wind Pressure Humidity
00:00 +25°C° 0 mm 5 mps 758 mmHg 50%
01:00 +23°C° 0 mm 5 mps 758 mmHg 55%
02:00 +22°C° 0 mm 5 mps 757 mmHg 59%
03:00 +21°C° 0 mm 5 mps 757 mmHg 63%
04:00 +20°C° 0 mm 5 mps 757 mmHg 65%
05:00 +20°C° 0 mm 4 mps 757 mmHg 67%
06:00 +19°C° 0 mm 4 mps 757 mmHg 68%
07:00 +23°C° 0 mm 4 mps 757 mmHg 58%
08:00 +27°C° 0 mm 4 mps 757 mmHg 47%
09:00 +30°C° 0 mm 4 mps 757 mmHg 36%
10:00 +34°C° 0 mm 4 mps 757 mmHg 30%
11:00 +36°C° 0 mm 3 mps 757 mmHg 24%
12:00 +38°C° 0 mm 3 mps 757 mmHg 18%
13:00 +40°C° 0 mm 4 mps 756 mmHg 18%
14:00 +40°C° 0 mm 5 mps 755 mmHg 18%
15:00 +40°C° 0 mm 6 mps 755 mmHg 18%
16:00 +39°C° 0 mm 6 mps 755 mmHg 22%
17:00 +36°C° 0 mm 6 mps 755 mmHg 27%
18:00 +34°C° 0 mm 6 mps 754 mmHg 31%
19:00 +32°C° 0 mm 6 mps 755 mmHg 36%
20:00 +29°C° 0 mm 6 mps 756 mmHg 41%
21:00 +27°C° 0 mm 6 mps 756 mmHg 46%
22:00 +26°C° 0 mm 6 mps 757 mmHg 52%
23:00 +25°C° 0 mm 5 mps 757 mmHg 58%

11 August, Tuesday

Time Temperature Precipitation Wind Pressure Humidity
00:00 +22°C° 0 mm 5 mps 757 mmHg 63%
01:00 +21°C° 0 mm 5 mps 757 mmHg 68%
02:00 +20°C° 0 mm 4 mps 757 mmHg 74%
03:00 +19°C° 0 mm 4 mps 756 mmHg 79%
04:00 +19°C° 0 mm 4 mps 757 mmHg 80%
05:00 +17°C° 0 mm 5 mps 757 mmHg 82%
06:00 +17°C° 0 mm 5 mps 757 mmHg 83%
07:00 +21°C° 0 mm 5 mps 757 mmHg 71%
08:00 +25°C° 0 mm 4 mps 757 mmHg 59%
09:00 +28°C° 0 mm 4 mps 757 mmHg 47%
10:00 +30°C° 0 mm 4 mps 757 mmHg 39%
11:00 +33°C° 0 mm 4 mps 757 mmHg 30%
12:00 +35°C° 0 mm 4 mps 757 mmHg 22%
13:00 +35°C° 0 mm 5 mps 757 mmHg 23%
14:00 +36°C° 0 mm 6 mps 757 mmHg 24%
15:00 +36°C° 0 mm 7 mps 757 mmHg 24%
16:00 +35°C° 0 mm 7 mps 757 mmHg 27%
17:00 +33°C° 0 mm 7 mps 757 mmHg 30%
18:00 +32°C° 0 mm 7 mps 757 mmHg 33%
19:00 +29°C° 0 mm 7 mps 757 mmHg 43%
20:00 +27°C° 0 mm 7 mps 758 mmHg 52%
21:00 +24°C° 0 mm 8 mps 758 mmHg 61%
22:00 +23°C° 0 mm 7 mps 759 mmHg 67%
23:00 +22°C° 0 mm 7 mps 759 mmHg 72%

12 August, Wednesday

Time Temperature Precipitation Wind Pressure Humidity
00:00 +20°C° 0 mm 7 mps 759 mmHg 78%
01:00 +20°C° 0 mm 6 mps 759 mmHg 82%
02:00 +19°C° 0 mm 6 mps 759 mmHg 87%
03:00 +17°C° 0 mm 5 mps 759 mmHg 92%
04:00 +17°C° 0 mm 5 mps 759 mmHg 93%
05:00 +16°C° 0 mm 5 mps 759 mmHg 93%
06:00 +17°C° 0 mm 4 mps 759 mmHg 94%
07:00 +19°C° 0 mm 5 mps 760 mmHg 83%
08:00 +22°C° 0 mm 5 mps 760 mmHg 71%
09:00 +25°C° 0 mm 5 mps 760 mmHg 60%
10:00 +27°C° 0 mm 5 mps 760 mmHg 52%
11:00 +29°C° 0 mm 4 mps 760 mmHg 43%
12:00 +33°C° 0 mm 4 mps 760 mmHg 35%
13:00 +33°C° 0 mm 5 mps 759 mmHg 34%
14:00 +34°C° 0 mm 6 mps 759 mmHg 33%
15:00 +34°C° 0 mm 7 mps 758 mmHg 32%
16:00 +34°C° 0 mm 6 mps 758 mmHg 35%
17:00 +33°C° 0 mm 6 mps 758 mmHg 38%
18:00 +32°C° 0 mm 6 mps 758 mmHg 41%
19:00 +29°C° 0 mm 6 mps 759 mmHg 43%
20:00 +28°C° 0 mm 6 mps 759 mmHg 45%
21:00 +26°C° 0 mm 7 mps 760 mmHg 46%
22:00 +24°C° 0 mm 7 mps 760 mmHg 50%
23:00 +23°C° 0 mm 7 mps 760 mmHg 54%

13 August, Thursday

Time Temperature Precipitation Wind Pressure Humidity
00:00 +21°C° 0 mm 7 mps 760 mmHg 58%
01:00 +20°C° 0 mm 7 mps 760 mmHg 63%
02:00 +18°C° 0 mm 7 mps 759 mmHg 69%
03:00 +17°C° 0 mm 6 mps 759 mmHg 75%
04:00 +16°C° 0 mm 6 mps 759 mmHg 78%
05:00 +15°C° 0 mm 6 mps 759 mmHg 81%
06:00 +15°C° 0 mm 6 mps 760 mmHg 85%
07:00 +19°C° 0 mm 6 mps 760 mmHg 72%
08:00 +22°C° 0 mm 5 mps 760 mmHg 60%
09:00 +26°C° 0 mm 5 mps 760 mmHg 48%
10:00 +28°C° 0 mm 5 mps 760 mmHg 39%
11:00 +32°C° 0 mm 4 mps 760 mmHg 30%
12:00 +34°C° 0 mm 4 mps 759 mmHg 20%
13:00 +35°C° 0 mm 5 mps 759 mmHg 21%
14:00 +35°C° 0 mm 6 mps 759 mmHg 22%
15:00 +35°C° 0 mm 7 mps 758 mmHg 23%
16:00 +34°C° 0 mm 7 mps 758 mmHg 27%
17:00 +33°C° 0 mm 6 mps 758 mmHg 30%
18:00 +32°C° 0 mm 6 mps 758 mmHg 33%
19:00 +29°C° 0 mm 7 mps 759 mmHg 36%
20:00 +27°C° 0 mm 7 mps 759 mmHg 39%
21:00 +24°C° 0 mm 7 mps 759 mmHg 42%
22:00 +23°C° 0 mm 7 mps 760 mmHg 47%
23:00 +21°C° 0 mm 7 mps 760 mmHg 53%
Show more